Starlink 3680

operational
NORAD ID: 51969 Int'l Des: 2022-025 Owner: SPXS Country: US Constellation: starlink
LEOCIRCULARSTARLINK_TYPE

关于 Starlink 3680

正在加载描述...

实时位置

正在加载3D地球...

即将过境

高度历史

Altitude vs Time

uPlot chart will show altitude changes over time

两行轨道根数

1 51969U 22025P 25305.51911432 -.00004758 00000-0 -30090-3 0 9993
2 51969 53.0537 242.6073 0001421 98.1483 261.9667 15.06380319201646
Epoch: Nov 1, 2025 • Age: 17 hours

当前状态

高度 551.0 km
速度 7.59 km/s
星下点 -12.42°S, 99.51°E
发射日期 Mar 9, 2022
运行时间 3.6 years
类型 internet

技术详情

分类 Payload
质量 297.00 kg
干质量 275.00 kg
总质量 297.00 kg
长度 0.20 m
直径 2.80 m
跨度 9.00 m
形状 Box + pan
制造商 SPXS
平台类型 Starlink
阶段状态 In Orbit
所有者/国家 SPXS/US

大型星座

Loading constellations...